Track STARLINK-4008 now! 10-day predictions STARLINK-4008 is classified as:
1 52622U 22052AA 22224.58334491 -.00043270 00000-0 -27141-2 0 9992 2 52622 53.2179 22.9591 0001318 94.4487 320.7605 15.08879681 1303